{"data":{"norad_id":65252,"intl_designator":"2025-179T","name":"STARLINK-34961","alt_names":[],"object_type":"PAYLOAD","status":"ACTIVE","operator":null,"country":"US","launch_date":"2025-08-18","launch_site_code":"AFWTR","launch_vehicle":null,"mission":null,"orbit_class":"UNKNOWN","rcs_meters":null,"size_class":null,"mass_kg":null,"dimensions":null,"purposes":["comms"],"wikipedia_slug":null,"has_3d_model":false,"image_url":null,"decayed_at":null,"tle_current":{"epoch":"2026-09-20T14:06:13.229568Z","epoch_age_seconds":109981,"freshness":"FRESH","line1":"1 65252U 25179T   26263.58765312  .00014616  00000+0  45384-3 0  9994","line2":"2 65252  97.2861 302.8724 0000922  84.3546 275.7802 15.33468563 61332","mean_motion":15.33468563,"eccentricity":9.22e-5,"inclination_deg":97.2861,"raan_deg":302.8724,"arg_perigee_deg":84.3546,"mean_anomaly_deg":275.7802,"bstar":0.00045384,"rev_number":6133,"period_min":93.904761711114,"perigee_km":464.84208761751,"apogee_km":466.10404931414,"semimajor_km":6843.6100684658,"source":"CELESTRAK","updated_at":"2026-09-21T09:00:35.561291Z"}}}